Regional Weather Roundup
Issued by NWS Jackson, KY

Home | Current Version | Previous Version | Text Only | Print | Product List | Glossary Off
Versions: 1 2 3 4 5 6 7 8 9 10 11 12 13 14 15 16 17 18 19 20 21 22 23 24 25 26 27 28 29 30 31 32 33 34 35 36 37 38 39 40 41 42 43 44 45 46 47 48 49 50

042
ASUS43 KJKL 101210
RWRJKL

EAST KENTUCKY HOURLY WEATHER ROUNDUP
NATIONAL WEATHER SERVICE JACKSON KY
700 AM EST WED FEB 10 2016

NOTE: "FAIR" INDICATES FEW OR NO CLOUDS BELOW 12,000 FEET WITH
NO SIGNIFICANT WEATHER AND/OR OBSTRUCTIONS TO VISIBILITY.

* THESE REPORTS ARE NOT UNDER NWS QUALITY CONTROL AND MAY NOT
  REPORT WEATHER SUCH AS PRECIPITATION AND FOG.

KYZ079-080-083-085-087-088-110-112-115-119-120-101300
...EASTERN KENTUCKY...

CITY           SKY/WX    TMP DP  RH WIND       PRES   REMARKS
JACKSON        CLOUDY    16   7  67 W9G16     29.96R WCI   4
6HR MIN TEMP:  16; 6HR MAX TEMP:  19; 6HR PCP: TRACE;

LONDON         CLOUDY    15   9  76 W9        30.00R WCI   3
6HR MIN TEMP:  15; 6HR MAX TEMP:  19; 6HR PCP:  0.02;

SOMERSET*      CLOUDY    18  12  79 W12       30.05R WCI   5
MONTICELLO*    FLURRIES  18  13  80 W18       30.05S WCI   2
6HR MIN TEMP:  18; 6HR MAX TEMP:  18; 6HR PCP: TRACE;

WILLIAMSBURG*  CLOUDY    16  14  93 MISG      30.02S
MIDDLESBORO*   CLOUDY    18  10  70 NW3       30.02R
6HR MIN TEMP:  18; 6HR MAX TEMP:  21;

HARLAN APT*    CLOUDY    18  10  73 SW6       29.96S WCI   9
HAZARD APT*    FLURRIES N/A N/A N/A SW9       29.98R
BLACK MTN*       N/A      5   3  92 CALM        N/A
BIG SANDY*     FLURRIES  18  12  78 W8        29.95R WCI   7
6HR MIN TEMP:  18; 6HR MAX TEMP:  22;

MOREHEAD APT*  LGT SNOW  16  12  86 VRB5G12   29.99R WCI   9
$$

KYZ035-036-041-042-044-050-067-078-099-101300
...CENTRAL KENTUCKY...

CITY           SKY/WX    TMP DP  RH WIND       PRES   REMARKS
MT STERLING*   LGT SNOW  18  12  79 W7        29.99S WCI   8
DANVILLE*      LGT SNOW  18  14  86 W3        30.01S
RICHMOND*      CLOUDY    16  10  79 W15       29.99S WCI   1
LEXINGTON      LGT SNOW  16  10  77 NW9       29.99R WCI   4
6HR MIN TEMP:  16; 6HR MAX TEMP:  17; 6HR PCP: TRACE;

FRANKFORT      CLOUDY    16   8  71 W3        30.00R
6HR MIN TEMP:  16; 6HR MAX TEMP:  18; 6HR PCP: TRACE;

$$

KYZ091>093-OHZ055-061-077-WVZ005-015-034-035-042-101300
...SOUTHERN OHIO/WEST VIRGINIA...

CITY           SKY/WX    TMP DP  RH WIND       PRES   REMARKS
COVINGTON      LGT SNOW  15  11  83 W12       29.96R FOG     WCI   2
COLUMBUS       LGT SNOW  15   9  76 SW10      29.88R WCI   2
DAYTON         LGT SNOW  15  11  83 W16       29.90R FOG     WCI  -1
WILMINGTON     LGT SNOW  14  10  84 W17       29.90R FOG     WCI  -3
HUNTINGTON     CLOUDY    18   7  62 W12G20    29.96R WCI   5
CHARLESTON     FLURRIES  20   9  62 W10G20    29.92R WCI   9
PINEVILLE*       N/A     19   8  64 MISG      29.92R
BECKLEY        LGT SNOW  15  10  80 W13       29.79R WCI   1
$$

VAZ002-007-008-TNZ017-027-036-066-071-101300
...SOUTHWEST VIRGINIA/EAST TENNESSEE...

CITY           SKY/WX    TMP DP  RH WIND       PRES   REMARKS
BRISTOL        FLURRIES  19  11  70 W13       29.95R WCI   6
KNOXVILLE      FLURRIES  20   7  57 W16G23    30.06R WCI   6
OAK RIDGE      CLOUDY    20   9  62 MISG      30.07R
CROSSVILLE     CLOUDY    15   8  73 W8        29.99S WCI   4
NASHVILLE      LGT SNOW  21  14  74 NW8       30.15R WCI  11
$$

...KEY TO REMARKS...
VSB - VISIBILITY IN MILES
WCI - WIND CHILL INDEX
HX  - HEAT INDEX

$$




USA.gov is the U.S. government's official web portal to all federal, state and local government web resources and services.